Погода в Бобраве

Россия / Белгородская область     50°56′09″N   35°46′40″E
темп.,
°C
ветер,
м/с
пор.,
м/с
влажн.,
%
обл.,
%
осадки,
мм/ч
давл.,
гПа
погр.,
м
9 мая, вс
вс900:00+5зсз71392100 0.0 1011832
03:00+5сз71290100 0.0 1013920
06:00+4зсз71187100 0.1 1014967
09:00+7сз8127025 0.1 10161204
12:00+9сз91056100 0.1 10172063
15:00+10сз81154100 0.2 10192210
18:00+9ссз711646 0.1 10211775
21:00+5сз37790 0.2 1023122
10 мая, пн
пн1000:00+3сз410850 0.0 1024175
03:00+3сз412843 0.0 1026227
06:00+3ссз410790 0.0 1026223
09:00+10с610600 0.0 1026771
12:00+12с810475 0.0 10251913
15:00+13с810495 0.0 10242023
18:00+12с711615 0.0 10231561
21:00+8с61463100 0.0 1023538
11 мая, вт
вт1100:00+9ссв81562100 0.0 1021786
03:00+9ссв71773100 0.0 1020696
06:00+9ссв71481100 0.2 1019446
09:00+11ссв7158472 0.3 1019611
12:00+13св81284100 0.1 10191109
15:00+15всв8115731 0.3 10201785
18:00+12в813685 0.0 10211411
21:00+9в7137543 0.0 1022626
12 мая, ср
ср1200:00+9в71374100 0.0 1021954
03:00+8в7138194 0.0 1019802
06:00+8в7168386 0.0 10191208
09:00+8в61594100 1.8 10191447
12:00+8вюв81390100 1.4 10181063
15:00+9вюв61287100 1.6 1017950
18:00+11юв71284100 0.4 10171065
21:00+10ююв51290100 0.9 1017664
13 мая, чт
чт1300:00+8вюв41194100 0.5 1017336
03:00+7юв399591 0.5 1017185
06:00+9юв41092100 0.0 1017239
09:00+14юв588168 0.0 1017593
12:00+18ююв6864100 0.0 10161374
15:00+20юв685881 0.0 10151750
18:00+18вюв5969100 0.0 1015497
21:00+13вюв41188100 0.0 1015212